Location: Leo
(52.0556°N, 112.3605°W)
Time: 07:17:18
(UTC+00:00)

FO-29 - Pass Details

Date: 05 December 2023
Orbit: 799 x 1322 km, 98.6° (Epoch: 04 March)

Event Time Altitude Azimuth Distance (km) Brightness Sun altitude
Rises 12:41:15 0° 12° (NNE) 4,079 12.8 -23.3°
Reaches altitude 10° 12:44:16 10° 0° (N) 3,182 12.1 -22.9°
Enters shadow 12:49:02 25° 321° (NW) 2,317 11.0 -22.1°
